H1 CPF 2 NER 2023 4 29 9 119 01 glonass128 H2 1106401 9128 37867 2023 4 29 0 0 0 2023 5 2 23 45 0 900 1 1 0 0 0 1 H9 10 0 60063 0.00000 0 -3066104.773 -24355596.731 7086346.748 10 0 60063 900.00000 0 -2900172.356 -23308907.774 10066075.965 10 0 60063 1800.00000 0 -2532284.163 -21946666.411 12851331.827 10 0 60063 2700.00000 0 -1929765.431 -20318258.018 15388417.417 10 0 60063 3600.00000 0 -1070443.097 -18480604.938 17628444.351 10 0 60063 4500.00000 0 56183.627 -16495855.325 19528252.154 10 0 60063 5400.00000 0 1448261.065 -14428877.786 21051219.093 10 0 60063 6300.00000 0 3091415.632 -12344664.151 22167950.978 10 0 60063 7200.00000 0 4959112.685 -10305745.990 22856836.459 10 0 60063 8100.00000 0 7013526.238 -8369729.649 23104459.490 10 0 60063 9000.00000 0 9206885.683 -6587049.668 22905861.707 10 0 60063 9900.00000 0 11483246.456 -4999031.810 22264649.667 10 0 60063 10800.00000 0 13780614.393 -3636344.660 21192944.131 10 0 60063 11700.00000 0 16033338.989 -2517903.359 19711170.872 10 0 60063 12600.00000 0 18174679.177 -1650271.169 17847694.989 10 0 60063 13500.00000 0 20139437.546 -1027584.566 15638303.255 10 0 60063 14400.00000 0 21866555.109 -632006.308 13125541.758 10 0 60063 15300.00000 0 23301559.155 -434689.268 10357918.955 10 0 60063 16200.00000 0 24398761.711 -397212.345 7388987.127 10 0 60063 17100.00000 0 25123115.368 -473429.651 4276318.067 10 0 60063 18000.00000 0 25451646.573 -611656.101 1080391.657 10 0 60063 18900.00000 0 25374403.595 -757097.475 -2136581.589 10 0 60063 19800.00000 0 24894876.403 -854421.651 -5311880.824 10 0 60063 20700.00000 0 24029868.023 -850360.732 -8383513.118 10 0 60063 21600.00000 0 22808820.410 -696231.581 -11291443.832 10 0 60063 22500.00000 0 21272621.595 -350265.047 -13978792.973 10 0 60063 23400.00000 0 19471943.499 220358.072 -16392971.677 10 0 60063 24300.00000 0 17465180.528 1037853.928 -18486734.244 10 0 60063 25200.00000 0 15316076.563 2112638.464 -20219122.890 10 0 60063 26100.00000 0 13091141.699 3442639.474 -21556284.846 10 0 60063 27000.00000 0 10856969.177 5013148.878 -22472144.474 10 0 60063 27900.00000 0 8677567.106 6797222.625 -22948916.448 10 0 60063 28800.00000 0 6611818.616 8756611.734 -22977449.759 10 0 60063 29700.00000 0 4711178.073 10843184.890 -22557396.195 10 0 60063 30600.00000 0 3017700.257 13000781.899 -21697200.885 10 0 60063 31500.00000 0 1562484.554 15167418.800 -20413916.401 10 0 60063 32400.00000 0 364597.877 17277750.682 -18732845.653 10 0 60063 33300.00000 0 -569480.934 19265687.584 -16687022.359 10 0 60063 34200.00000 0 -1245874.977 21067052.835 -14316541.153 10 0 60063 35100.00000 0 -1682784.434 22622171.934 -11667752.272 10 0 60063 36000.00000 0 -1909448.822 23878283.692 -8792338.286 10 0 60063 36900.00000 0 -1964643.690 24791673.430 -5746292.429 10 0 60063 37800.00000 0 -1894778.322 25329440.381 -2588819.668 10 0 60063 38700.00000 0 -1751677.272 25470827.327 618817.280 10 0 60063 39600.00000 0 -1590141.080 25208059.151 3814484.112 10 0 60063 40500.00000 0 -1465390.008 24546657.805 6936370.361 10 0 60063 41400.00000 0 -1430498.619 23505222.891 9924171.550 10 0 60063 42300.00000 0 -1533928.668 22114689.127 12720236.240 10 0 60063 43200.00000 0 -1817262.897 20417093.142 15270657.422 10 0 60063 44100.00000 0 -2313233.558 18463901.771 17526289.101 10 0 60063 45000.00000 0 -3044126.881 16313971.342 19443670.601 10 0 60063 45900.00000 0 -4020629.158 14031221.933 20985843.047 10 0 60063 46800.00000 0 -5241162.062 11682121.479 22123044.419 10 0 60063 47700.00000 0 -6691735.029 9333081.959 22833271.619 10 0 60063 48600.00000 0 -8346321.780 7047873.026 23102700.086 10 0 60063 49500.00000 0 -10167747.058 4885157.637 22925953.645 10 0 60063 50400.00000 0 -12109049.175 2896249.453 22306219.394 10 0 60063 51300.00000 0 -14115264.707 1123183.014 21255204.718 10 0 60063 52200.00000 0 -16125564.435 -402824.511 19792935.794 10 0 60063 53100.00000 0 -18075654.866 -1662456.593 17947399.465 10 0 60063 54000.00000 0 -19900348.190 -2648880.294 15754032.867 10 0 60063 54900.00000 0 -21536195.726 -3367803.668 13255067.942 10 0 60063 55800.00000 0 -22924076.153 -3837003.755 10498740.832 10 0 60063 56700.00000 0 -24011630.533 -4085343.269 7538378.967 10 0 60063 57600.00000 0 -24755441.296 -4151315.624 4431381.580 10 0 60063 58500.00000 0 -25122861.971 -4081178.251 1238112.121 10 0 60063 59400.00000 0 -25093418.245 -3926752.184 -1979276.434 10 0 60063 60300.00000 0 -24659718.422 -3742980.984 -5158060.302 10 0 60063 61200.00000 0 -23827831.835 -3585353.192 -8236182.821 10 0 60063 62100.00000 0 -22617116.416 -3507299.216 -11153485.788 10 0 60063 63000.00000 0 -21059500.343 -3557675.484 -13852908.041 10 0 60063 63900.00000 0 -19198246.491 -3778445.408 -16281625.453 10 0 60063 64800.00000 0 -17086251.041 -4202658.652 -18392107.608 10 0 60063 65700.00000 0 -14783948.040 -4852817.380 -20143068.299 10 0 60063 66600.00000 0 -12356908.986 -5739701.355 -21500289.297 10 0 60063 67500.00000 0 -9873239.781 -6861703.754 -22437299.942 10 0 60063 68400.00000 0 -7400886.008 -8204707.128 -22935898.413 10 0 60063 69300.00000 0 -5004961.228 -9742505.389 -22986504.258 10 0 60063 70200.00000 0 -2745211.554 -11437753.845 -22588335.629 10 0 60063 71100.00000 0 -673723.327 -13243406.496 -21749408.625 10 0 60063 72000.00000 0 1167030.211 -15104578.790 -20486360.011 10 0 60063 72900.00000 0 2745722.555 -16960755.988 -18824098.383 10 0 60063 73800.00000 0 4043225.634 -18748252.778 -16795292.384 10 0 60063 74700.00000 0 5053138.230 -20402819.435 -14439707.871 10 0 60063 75600.00000 0 5781772.421 -21862284.206 -11803408.859 10 0 60063 76500.00000 0 6247602.388 -23069120.587 -8937839.577 10 0 60063 77400.00000 0 6480202.609 -23972832.027 -5898807.121 10 0 60063 78300.00000 0 6518723.779 -24532054.947 -2745385.776 10 0 60063 79200.00000 0 6409973.737 -24716293.375 461234.834 10 0 60063 80100.00000 0 6206186.693 -24507214.459 3658934.896 10 0 60063 81000.00000 0 5962576.308 -23899452.799 6785859.938 10 0 60063 81900.00000 0 5734776.387 -22900892.172 9781604.167 10 0 60063 82800.00000 0 5576276.774 -21532414.884 12588359.762 10 0 60063 83700.00000 0 5535961.459 -19827130.757 15152011.459 10 0 60063 84600.00000 0 5655851.001 -17829118.784 17423157.238 10 0 60063 85500.00000 0 5969142.436 -15591733.964 19358037.536 10 0 60064 0.00000 0 6498627.290 -13175549.214 20919357.231 10 0 60064 900.00000 0 7255553.076 -10646014.977 22076987.470 10 0 60064 1800.00000 0 8238974.617 -8070934.713 22808533.654 10 0 60064 2700.00000 0 9435623.413 -5517853.953 23099762.840 10 0 60064 3600.00000 0 10820300.996 -3051471.434 22944880.910 10 0 60064 4500.00000 0 12356781.999 -731175.555 22346655.150 10 0 60064 5400.00000 0 13999191.913 1391193.962 21316379.025 10 0 60064 6300.00000 0 15693805.160 3273268.216 19873678.418 10 0 60064 7200.00000 0 17381191.745 4883676.298 18046161.071 10 0 60064 8100.00000 0 18998625.958 6203114.268 15868913.488 10 0 60064 9000.00000 0 20482659.064 7224910.878 13383852.319 10 0 60064 9900.00000 0 21771750.126 7955065.259 10638940.047 10 0 60064 10800.00000 0 22808845.520 8411753.440 7687277.701 10 0 60064 11700.00000 0 23543798.642 8624322.712 4586090.157 10 0 60064 12600.00000 0 23935526.753 8631814.572 1395622.400 10 0 60064 13500.00000 0 23953812.012 8481077.413 -1822032.391 10 0 60064 14400.00000 0 23580667.900 8224548.226 -5004149.929 10 0 60064 15300.00000 0 22811210.228 7917797.459 -8088612.351 10 0 60064 16200.00000 0 21653992.784 7616942.231 -11015140.441 10 0 60064 17100.00000 0 20130790.569 7376039.434 -13726494.382 10 0 60064 18000.00000 0 18275837.556 7244571.814 -16169617.171 10 0 60064 18900.00000 0 16134549.644 7265136.466 -18296695.937 10 0 60064 19800.00000 0 13761786.014 7471436.671 -20066118.146 10 0 60064 20700.00000 0 11219722.338 7886664.836 -21443302.052 10 0 60064 21600.00000 0 8575426.143 8522347.240 -22401383.749 10 0 60064 22500.00000 0 5898237.510 9377700.970 -22921746.508 10 0 60064 23400.00000 0 3257066.464 10439531.053 -22994381.785 10 0 60064 24300.00000 0 717721.700 11682672.069 -22618075.164 10 0 60064 25200.00000 0 -1659616.661 13070954.943 -21800414.418 10 0 60064 26100.00000 0 -3822674.201 14558656.861 -20557620.800 10 0 60064 27000.00000 0 -5729014.569 16092371.568 -18914208.445 10 0 60064 27900.00000 0 -7347547.701 17613219.544 -16902480.313 10 0 60064 28800.00000 0 -8659553.067 19059303.319 -14561872.439 10 0 60064 29700.00000 0 -9659178.198 20368303.275 -11938161.155 10 0 60064 30600.00000 0 -10353395.183 21480103.868 -9082550.522 10 0 60064 31500.00000 0 -10761420.848 22339339.559 -6050659.361 10 0 60064 32400.00000 0 -10913628.810 22897753.838 -2901428.862 10 0 60064 33300.00000 0 -10850002.678 23116273.216 304027.060 10 0 60064 34200.00000 0 -10618198.388 22966710.638 3503605.867 10 0 60064 35100.00000 0 -10271299.394 22433028.737 6635411.976 10 0 60064 36000.00000 0 -9865360.419 21512112.003 9638941.253 10 0 60064 36900.00000 0 -9456843.478 20214017.448 12456232.481 10 0 60064 37800.00000 0 -9100053.490 18561694.865 15032965.107 10 0 60064 38700.00000 0 -8844680.054 16590189.345 17319483.976 10 0 60064 39600.00000 0 -8733547.005 14345359.558 19271733.418 10 0 60064 40500.00000 0 -8800662.345 11882164.595 20852084.927 10 0 60064 41400.00000 0 -9069648.661 9262589.132 22030044.666 10 0 60064 42300.00000 0 -9552618.556 6553290.967 22782829.003 10 0 60064 43200.00000 0 -10249541.613 3823065.757 23095798.444 10 0 60064 44100.00000 0 -11148129.696 1140230.989 22962742.388 10 0 60064 45000.00000 0 -12224246.584 -1429965.467 22386009.328 10 0 60064 45900.00000 0 -13442826.839 -3827807.665 21376479.343 10 0 60064 46800.00000 0 -14759268.204 -6001344.982 19953378.025 10 0 60064 47700.00000 0 -16121242.363 -7908305.482 18143933.459 10 0 60064 48600.00000 0 -17470851.426 -9517610.494 15982880.415 10 0 60064 49500.00000 0 -18747042.674 -10810427.280 13511818.601 10 0 60064 50400.00000 0 -19888182.531 -11780715.004 10778434.709 10 0 60064 51300.00000 0 -20834683.021 -12435239.800 7835600.793 10 0 60064 52200.00000 0 -21531570.645 -12793056.584 4740364.436 10 0 60064 53100.00000 0 -21930888.710 -12884477.650 1552848.923 10 0 60064 54000.00000 0 -21993830.068 -12749570.031 -1664915.818 10 0 60064 54900.00000 0 -21692507.692 -12436244.114 -4850208.623 10 0 60064 55800.00000 0 -21011285.137 -11998014.102 -7940854.159 10 0 60064 56700.00000 0 -19947607.358 -11491525.708 -10876455.963 10 0 60064 57600.00000 0 -18512293.526 -10973957.211 -13599599.286 10 0 60064 58500.00000 0 -16729276.712 -10500406.122 -16056997.840 10 0 60064 59400.00000 0 -14634799.311 -10121374.736 -18200559.615 10 0 60064 60300.00000 0 -12276096.843 -9880463.889 -19988348.681 10 0 60064 61200.00000 0 -9709625.123 -9812375.234 -21385422.190 10 0 60064 62100.00000 0 -6998905.743 -9941308.875 -22364524.781 10 0 60064 63000.00000 0 -4212081.220 -10279825.806 -22906625.921 10 0 60064 63900.00000 0 -1419283.716 -10828224.177 -23001289.385 10 0 60064 64800.00000 0 1310071.108 -11574455.823 -22646867.918 10 0 60064 65700.00000 0 3909950.756 -12494585.975 -21850520.086 10 0 60064 66600.00000 0 6320220.847 -13553775.404 -20628050.212 10 0 60064 67500.00000 0 8488903.334 -14707741.816 -19003576.095 10 0 60064 68400.00000 0 10374084.455 -15904636.863 -17009032.751 10 0 60064 69300.00000 0 11945394.401 -17087257.602 -14683523.797 10 0 60064 70200.00000 0 13184999.370 -18195497.396 -12072535.019 10 0 60064 71100.00000 0 14088067.727 -19168931.607 -9227027.227 10 0 60064 72000.00000 0 14662694.387 -19949428.331 -6202427.717 10 0 60064 72900.00000 0 14929290.463 -20483674.083 -3057541.257 10 0 60064 73800.00000 0 14919467.506 -20725508.607 146597.298 10 0 60064 74700.00000 0 14674466.489 -20637971.712 3347905.944 10 0 60064 75600.00000 0 14243200.212 -20194977.608 6484451.092 10 0 60064 76500.00000 0 13679993.196 -19382548.289 9495633.118 10 0 60064 77400.00000 0 13042114.920 -18199556.009 12323339.947 10 0 60064 78300.00000 0 12387210.005 -16657945.366 14913047.915 10 0 60064 79200.00000 0 11770732.371 -14782426.795 17214850.521 10 0 60064 80100.00000 0 11243489.552 -12609654.707 19184397.361 10 0 60064 81000.00000 0 10849398.256 -10186924.155 20783727.389 10 0 60064 81900.00000 0 10623543.265 -7570439.027 21981982.631 10 0 60064 82800.00000 0 10590619.233 -4823221.744 22755990.453 10 0 60064 83700.00000 0 10763819.409 -2012748.524 23090704.651 10 0 60064 84600.00000 0 11144217.248 791594.856 22979497.672 10 0 60064 85500.00000 0 11720667.225 3521134.591 22424298.490 10 0 60065 0.00000 0 12470230.140 6110501.954 21435572.955 10 0 60065 900.00000 0 13359107.633 8500094.590 20032145.065 10 0 60065 1800.00000 0 14344048.344 10638302.448 18240862.056 10 0 60065 2700.00000 0 15374171.068 12483411.758 16096105.566 10 0 60065 3600.00000 0 16393130.316 14005104.696 13639156.857 10 0 60065 4500.00000 0 17341536.200 15185493.070 10917425.189 10 0 60065 5400.00000 0 18159528.554 16019641.431 7983551.870 10 0 60065 6300.00000 0 18789397.797 16515556.026 4894405.264 10 0 60065 7200.00000 0 19178141.769 16693638.136 1709984.896 10 0 60065 8100.00000 0 19279849.382 16585623.088 -1507744.748 10 0 60065 9000.00000 0 19057808.144 16233048.282 -4696067.887 10 0 60065 9900.00000 0 18486243.523 15685314.189 -7792754.007 10 0 60065 10800.00000 0 17551613.264 14997420.348 -10737291.657 10 0 60065 11700.00000 0 16253398.483 14227473.019 -13472093.319 10 0 60065 12600.00000 0 14604354.896 13434071.631 -15943645.456 10 0 60065 13500.00000 0 12630210.959 12673686.868 -18103578.822 10 0 60065 14400.00000 0 10368823.692 11998143.901 -19909635.854 10 0 60065 15300.00000 0 7868826.705 11452319.867 -21326514.223 10 0 60065 16200.00000 0 5187827.081 11072155.243 -22326568.601 10 0 60065 17100.00000 0 2390227.291 10883064.997 -22890356.002 10 0 60065 18000.00000 0 -455235.410 10898817.709 -23007013.660 10 0 60065 18900.00000 0 -3278127.811 11120930.244 -22674462.374 10 0 60065 19800.00000 0 -6009026.094 11538602.955 -21899432.067 10 0 60065 20700.00000 0 -8582173.629 12129196.859 -20697310.315 10 0 60065 21600.00000 0 -10937979.751 12859230.713 -19091818.332 10 0 60065 22500.00000 0 -13025255.448 13685853.705 -17114522.521 10 0 60065 23400.00000 0 -14803093.658 14558729.215 -14804193.026 10 0 60065 24300.00000 0 -16242317.554 15422247.919 -12206023.679 10 0 60065 25200.00000 0 -17326438.981 16217974.971 -9370730.360 10 0 60065 26100.00000 0 -18052090.183 16887226.635 -6353546.935 10 0 60065 27000.00000 0 -18428914.394 17373666.959 -3213139.673 10 0 60065 27900.00000 0 -18478923.565 17625815.003 -10462.158 10 0 60065 28800.00000 0 -18235353.639 17599357.544 3192426.488 10 0 60065 29700.00000 0 -17741068.378 17259171.112 6333557.121 10 0 60065 30600.00000 0 -17046580.991 16580969.814 9352237.184 10 0 60065 31500.00000 0 -16207777.962 15552511.437 12190206.394 10 0 60065 32400.00000 0 -15283441.047 14174312.833 14792740.671 10 0 60065 33300.00000 0 -14332670.855 12459845.837 17109684.878 10 0 60065 34200.00000 0 -13412318.803 10435206.184 19096396.544 10 0 60065 35100.00000 0 -12574533.185 8138269.133 20714584.641 10 0 60065 36000.00000 0 -11864519.975 5617365.993 21933029.448 10 0 60065 36900.00000 0 -11318609.956 2929534.835 22728171.491 10 0 60065 37800.00000 0 -10962711.255 138415.522 23084559.739 10 0 60065 38700.00000 0 -10811210.748 -2688126.719 22995151.236 10 0 60065 39600.00000 0 -10866369.892 -5480553.963 22461456.599 10 0 60065 40500.00000 0 -11118240.656 -8170282.060 21493527.993 10 0 60065 41400.00000 0 -11545106.390 -10692275.065 20109788.476 10 0 60065 42300.00000 0 -12114431.154 -12987502.457 18336704.125 10 0 60065 43200.00000 0 -12784280.210 -15005158.749 16208302.803 10 0 60065 44100.00000 0 -13505154.747 -16704553.965 13765546.208 10 0 60065 45000.00000 0 -14222166.211 -18056596.032 11055564.611 10 0 60065 45900.00000 0 -14877460.790 -19044802.219 8130766.602 10 0 60065 46800.00000 0 -15412793.104 -19665795.700 5047839.001 10 0 60065 47700.00000 0 -15772140.780 -19929264.427 1866654.907 10 0 60065 48600.00000 0 -15904248.706 -19857382.027 -1350889.578 10 0 60065 49500.00000 0 -15764993.585 -19483713.309 -4542087.260 10 0 60065 50400.00000 0 -15319466.157 -18851649.318 -7644655.866 10 0 60065 51300.00000 0 -14543679.746 -18012437.454 -10597972.541 10 0 60065 52200.00000 0 -13425829.341 -17022890.214 -13344280.690 10 0 60065 53100.00000 0 -11967044.541 -15942870.528 -15829843.218 10 0 60065 54000.00000 0 -10181601.474 -14832661.811 -18006017.211 10 0 60065 54900.00000 0 -8096582.281 -13750336.153 -19830226.782 10 0 60065 55800.00000 0 -5750994.907 -12749234.327 -21266813.040 10 0 60065 56700.00000 0 -3194389.392 -11875666.375 -22287743.107 10 0 60065 57600.00000 0 -485028.821 -11166931.738 -22873163.342 10 0 60065 58500.00000 0 2312307.651 -10649743.749 -23011785.625 10 0 60065 59400.00000 0 5128796.567 -10339125.386 -22701099.339 10 0 60065 60300.00000 0 7894212.006 -10237822.425 -21947405.700 10 0 60065 61200.00000 0 10539625.816 -10336257.497 -20765674.904 10 0 60065 62100.00000 0 13000052.621 -10613025.032 -19179230.437 10 0 60065 63000.00000 0 15216928.856 -11035903.747 -17219268.469 10 0 60065 63900.00000 0 17140322.779 -11563341.275 -14924223.578 10 0 60065 64800.00000 0 18730784.410 -12146345.545 -12338995.130 10 0 60065 65700.00000 0 19960760.180 -12730700.665 -9514051.135 10 0 60065 66600.00000 0 20815515.858 -13259411.753 -6504428.754 10 0 60065 67500.00000 0 21293532.399 -13675274.175 -3368652.190 10 0 60065 68400.00000 0 21406361.644 -13923458.117 -167590.023 10 0 60065 69300.00000 0 21177951.334 -13953999.548 3036725.282 10 0 60065 70200.00000 0 20643470.921 -13724093.291 6182292.712 10 0 60065 71100.00000 0 19847689.895 -13200092.884 9208330.247 10 0 60065 72000.00000 0 18842978.436 -12359134.610 12056432.532 10 0 60065 72900.00000 0 17687015.012 -11190319.079 14671677.809 10 0 60065 73800.00000 0 16440296.897 -9695402.100 17003664.580 10 0 60065 74700.00000 0 15163556.890 -7888966.856 19007460.107 10 0 60065 75600.00000 0 13915192.681 -5798070.314 20644444.713 10 0 60065 76500.00000 0 12748814.188 -3461378.027 21883037.796 10 0 60065 77400.00000 0 11711009.083 -927821.875 22699293.479 10 0 60065 78300.00000 0 10839417.616 1745165.734 23077355.918 10 0 60065 79200.00000 0 10161195.362 4493770.796 23009766.389 10 0 60065 80100.00000 0 9691926.929 7250185.191 22497616.440 10 0 60065 81000.00000 0 9435035.688 9945167.176 21550543.618 10 0 60065 81900.00000 0 9381714.675 12510671.989 20186568.563 10 0 60065 82800.00000 0 9511382.888 14882446.197 18431774.717 10 0 60065 83700.00000 0 9792649.766 17002480.130 16319834.425 10 0 60065 84600.00000 0 10184749.706 18821217.613 13891387.907 10 0 60065 85500.00000 0 10639388.707 20299431.111 11193284.379 10 0 60066 0.00000 0 11102927.475 21409683.272 8277697.786 10 0 60066 900.00000 0 11518810.747 22137312.782 5201130.543 10 0 60066 1800.00000 0 11830140.349 22480899.800 2023327.157 10 0 60066 2700.00000 0 11982283.812 22452191.165 -1193887.138 10 0 60066 3600.00000 0 11925406.266 22075484.796 -4387816.222 10 0 60066 4500.00000 0 11616816.477 21386498.123 -7496128.490 10 0 60066 5400.00000 0 11023024.702 20430767.048 -10458091.994 10 0 60066 6300.00000 0 10121421.843 19261642.643 -13215783.202 10 0 60066 7200.00000 0 8901505.310 17937970.740 -15715243.405 10 0 60066 8100.00000 0 7365596.405 16521553.648 -17907557.770 10 0 60066 9000.00000 0 5529016.076 15074503.068 -19749833.633 10 0 60066 9900.00000 0 3419709.459 13656598.140 -21206056.917 10 0 60066 10800.00000 0 1077333.678 12322762.343 -22247808.381 10 0 60066 11700.00000 0 -1448153.253 11120767.595 -22854824.751 10 0 60066 12600.00000 0 -4098342.886 10089263.750 -23015393.330 10 0 60066 13500.00000 0 -6808587.747 9256217.199 -22726572.608 10 0 60066 14400.00000 0 -9510479.876 8637824.098 -21994235.270 10 0 60066 15300.00000 0 -12134491.486 8237942.951 -20832933.928 10 0 60066 16200.00000 0 -14612666.237 8048068.508 -19265593.737 10 0 60066 17100.00000 0 -16881247.965 8047845.575 -17323039.626 10 0 60066 18000.00000 0 -18883136.924 8206098.097 -15043369.273 10 0 60066 18900.00000 0 -20570071.571 8482327.039 -12471185.951 10 0 60066 19800.00000 0 -21904446.104 8828610.899 -9656707.996 10 0 60066 20700.00000 0 -22860689.906 9191826.035 -6654773.906 10 0 60066 21600.00000 0 -23426153.903 9516091.081 -3523763.790 10 0 60066 22500.00000 0 -23601469.886 9745330.939 -324459.117 10 0 60066 23400.00000 0 -23400370.998 9825851.603 2881136.469 10 0 60066 24300.00000 0 -22848984.031 9708817.434 6030992.329 10 0 60066 25200.00000 0 -21984625.890 9352527.258 9064239.298 10 0 60066 26100.00000 0 -20854156.688 8724394.793 11922329.342 10 0 60066 27000.00000 0 -19511959.648 7802551.579 14550145.460 10 0 60066 27900.00000 0 -18017632.650 6577006.579 16897042.238 10 0 60066 28800.00000 0 -16433487.370 5050314.917 18917799.043 10 0 60066 29700.00000 0 -14821959.084 3237728.330 20573469.794 10 0 60066 30600.00000 0 -13243033.259 1166820.801 21832115.060 10 0 60066 31500.00000 0 -11751793.910 -1123396.079 22669404.358 10 0 60066 32400.00000 0 -10396193.506 -3583833.124 23069078.540 10 0 60066 33300.00000 0 -9215135.159 -6157105.058 23023264.304 10 0 60066 34200.00000 0 -8236945.310 -8779662.738 22532634.982 10 0 60066 35100.00000 0 -7478299.586 -11384191.038 21606414.012 10 0 60066 36000.00000 0 -6943646.413 -13902176.352 20262219.763 10 0 60066 36900.00000 0 -6625153.063 -16266540.176 18525752.834 10 0 60066 37800.00000 0 -6503177.714 -18414231.797 16430329.484 10 0 60066 38700.00000 0 -6547249.568 -20288673.855 14016267.524 10 0 60066 39600.00000 0 -6717517.993 -21841959.472 11330133.850 10 0 60066 40500.00000 0 -6966611.788 -23036708.904 8423865.631 10 0 60066 41400.00000 0 -7241831.890 -23847506.780 5353780.059 10 0 60066 42300.00000 0 -7487586.038 -24261857.773 2179490.402 10 0 60066 43200.00000 0 -7647962.615 -24280618.164 -1037251.367 10 0 60066 44100.00000 0 -7669334.012 -23917882.719 -4233762.841 10 0 60066 45000.00000 0 -7502877.485 -23200329.363 -7347665.955 10 0 60066 45900.00000 0 -7106904.178 -22166047.561 -10318122.758 10 0 60066 46800.00000 0 -6448894.477 -20862898.816 -13087046.037 10 0 60066 47700.00000 0 -5507150.021 -19346478.322 -15600258.824 10 0 60066 48600.00000 0 -4271989.050 -17677764.447 -17808577.703 10 0 60066 49500.00000 0 -2746431.388 -15920556.579 -19668796.453 10 0 60066 50400.00000 0 -946341.624 -14138811.248 -21144548.761 10 0 60066 51300.00000 0 1099977.362 -12393990.885 -22207031.613 10 0 60066 52200.00000 0 3352724.394 -10742538.799 -22835574.222 10 0 60066 53100.00000 0 5762034.137 -9233588.273 -23018040.930 10 0 60066 54000.00000 0 8269844.654 -7907003.057 -22751060.412 10 0 60066 54900.00000 0 10812119.052 -6791831.730 -22040077.376 10 0 60066 55800.00000 0 13321326.839 -5905240.158 -20899226.892 10 0 60066 56700.00000 0 15729079.816 -5251965.201 -19351035.325 10 0 60066 57600.00000 0 17968811.225 -4824310.207 -17425955.410 10 0 60066 58500.00000 0 19978385.453 -4602679.435 -15161746.463 10 0 60066 59400.00000 0 21702529.235 -4556625.540 -12602713.692 10 0 60066 60300.00000 0 23094983.441 -4646362.599 -9798823.274 10 0 60066 61200.00000 0 24120286.907 -4824677.701 -6804712.095 10 0 60066 62100.00000 0 24755119.846 -5039157.837 -3678612.815 10 0 60066 63000.00000 0 24989153.265 -5234636.091 -481216.154 10 0 60066 63900.00000 0 24825371.766 -5355752.732 2725506.871 10 0 60066 64800.00000 0 24279859.193 -5349522.779 5879499.809 10 0 60066 65700.00000 0 23381058.824 -5167802.122 8919810.041 10 0 60066 66600.00000 0 22168541.269 -4769549.294 11787750.307 10 0 60066 67500.00000 0 20691333.130 -4122789.061 14428011.476 10 0 60066 68400.00000 0 19005876.906 -3206196.775 16789706.923 10 0 60066 69300.00000 0 17173707.110 -2010238.343 18827330.420 10 0 60066 70200.00000 0 15258938.422 -537818.912 20501611.321 10 0 60066 71100.00000 0 13325668.760 1195586.621 21780252.777 10 0 60066 72000.00000 0 11435403.104 3162327.311 22638540.665 10 0 60066 72900.00000 0 9644602.719 5323479.139 23059813.061 10 0 60066 73800.00000 0 8002459.241 7630221.908 23035782.176 10 0 60066 74700.00000 0 6548984.046 10025635.767 22566702.774 10 0 60066 75600.00000 0 5313490.851 12446846.024 21661383.406 10 0 60066 76500.00000 0 4313533.817 14827430.658 20337038.988 10 0 60066 77400.00000 0 3554345.432 17099993.724 18618985.724 10 0 60066 78300.00000 0 3028798.324 19198800.436 16540181.909 10 0 60066 79200.00000 0 2717893.935 21062366.247 14140620.802 10 0 60066 80100.00000 0 2591759.377 22635893.015 11466584.599 10 0 60066 81000.00000 0 2611112.461 23873450.566 8569771.411 10 0 60066 81900.00000 0 2729134.969 24739811.433 5506309.983 10 0 60066 82800.00000 0 2893676.438 25211860.060 2335679.796 10 0 60066 83700.00000 0 3049695.882 25279514.901 -880443.279 10 0 60066 84600.00000 0 3141837.862 24946121.963 -4079393.363 10 0 60066 85500.00000 0 3117032.532 24228300.568 -7198748.660 99